When you browse on this site, cookies collect data to enhance your experience and personalize the content and advertising you see.
Visit our Privacy Policy to learn more. By continuing to use the site, you agree to this use of cookies and data.
  • In Hungary
  • List of Countries
  • For 7 days
  • Water Temperature
  • Weather Map
  • News
  • Weather Widgets
  • user-avatar
    Login

    Hourly Weather La Democracia

    Today, 16 November, Saturday

    Time Temperature Precipitation Wind Pressure Humidity
    00:00 +17°C° 0 mm 0 mps 662 mmHg 99%
    01:00 +17°C° 0.4 mm 0 mps 661 mmHg 99%
    02:00 +17°C° 0.4 mm 0 mps 661 mmHg 99%
    03:00 +17°C° 0.4 mm 0 mps 661 mmHg 98%
    04:00 +17°C° 0.2 mm 0 mps 661 mmHg 98%
    05:00 +17°C° 0.2 mm 0 mps 661 mmHg 98%
    06:00 +17°C° 0 mm 0 mps 661 mmHg 98%
    07:00 +20°C° 0.1 mm 1 mps 662 mmHg 95%
    08:00 +21°C° 0.1 mm 1 mps 662 mmHg 92%
    09:00 +22°C° 0.1 mm 1 mps 663 mmHg 90%
    10:00 +23°C° 0.2 mm 1 mps 663 mmHg 86%
    11:00 +23°C° 0.2 mm 1 mps 662 mmHg 83%
    12:00 +24°C° 0.2 mm 2 mps 662 mmHg 79%
    13:00 +24°C° 0.3 mm 2 mps 662 mmHg 79%
    14:00 +24°C° 0.3 mm 1 mps 661 mmHg 79%
    15:00 +24°C° 0.3 mm 1 mps 660 mmHg 80%
    16:00 +23°C° 0.2 mm 1 mps 660 mmHg 83%
    17:00 +22°C° 0.2 mm 1 mps 661 mmHg 86%
    18:00 +20°C° 0.2 mm 1 mps 661 mmHg 90%
    19:00 +20°C° 0 mm 1 mps 661 mmHg 90%
    20:00 +19°C° 0 mm 1 mps 661 mmHg 90%
    21:00 +17°C° 0 mm 0 mps 662 mmHg 91%
    22:00 +17°C° 0 mm 0 mps 661 mmHg 91%
    23:00 +17°C° 0 mm 0 mps 661 mmHg 91%

    Tomorrow, 17 November, Sunday

    Time Temperature Precipitation Wind Pressure Humidity
    00:00 +16°C° 0 mm 0 mps 661 mmHg 92%
    01:00 +16°C° 0 mm 0 mps 660 mmHg 92%
    02:00 +16°C° 0 mm 0 mps 660 mmHg 93%
    03:00 +16°C° 0 mm 0 mps 660 mmHg 93%
    04:00 +15°C° 0 mm 0 mps 660 mmHg 93%
    05:00 +15°C° 0 mm 0 mps 660 mmHg 93%
    06:00 +15°C° 0 mm 0 mps 660 mmHg 93%
    07:00 +16°C° 0 mm 0 mps 661 mmHg 88%
    08:00 +18°C° 0 mm 0 mps 661 mmHg 84%
    09:00 +20°C° 0 mm 0 mps 662 mmHg 79%
    10:00 +23°C° 0 mm 1 mps 662 mmHg 74%
    11:00 +24°C° 0 mm 1 mps 662 mmHg 69%
    12:00 +26°C° 0 mm 1 mps 662 mmHg 65%
    13:00 +25°C° 0 mm 1 mps 661 mmHg 67%
    14:00 +25°C° 0 mm 2 mps 660 mmHg 69%
    15:00 +25°C° 0 mm 2 mps 660 mmHg 72%
    16:00 +23°C° 0 mm 1 mps 660 mmHg 79%
    17:00 +22°C° 0 mm 1 mps 660 mmHg 86%
    18:00 +18°C° 0 mm 0 mps 660 mmHg 93%
    19:00 +18°C° 0 mm 0 mps 660 mmHg 93%
    20:00 +17°C° 0 mm 0 mps 660 mmHg 92%
    21:00 +17°C° 0 mm 0 mps 661 mmHg 92%
    22:00 +17°C° 0 mm 0 mps 661 mmHg 92%
    23:00 +16°C° 0 mm 0 mps 660 mmHg 91%

    Day after tomorrow, 18 November, Monday

    Time Temperature Precipitation Wind Pressure Humidity
    00:00 +16°C° 0 mm 0 mps 660 mmHg 91%
    01:00 +16°C° 0 mm 0 mps 660 mmHg 91%
    02:00 +16°C° 0 mm 0 mps 659 mmHg 91%
    03:00 +16°C° 0 mm 0 mps 659 mmHg 91%
    04:00 +15°C° 0 mm 0 mps 659 mmHg 90%
    05:00 +15°C° 0 mm 0 mps 659 mmHg 90%
    06:00 +15°C° 0 mm 0 mps 659 mmHg 90%
    07:00 +16°C° 0 mm 0 mps 660 mmHg 86%
    08:00 +17°C° 0 mm 0 mps 661 mmHg 83%
    09:00 +19°C° 0 mm 0 mps 662 mmHg 80%
    10:00 +22°C° 0 mm 1 mps 661 mmHg 75%
    11:00 +24°C° 0 mm 1 mps 661 mmHg 70%
    12:00 +25°C° 0 mm 2 mps 661 mmHg 65%
    13:00 +25°C° 0 mm 2 mps 661 mmHg 67%
    14:00 +25°C° 0 mm 2 mps 660 mmHg 68%
    15:00 +25°C° 0 mm 2 mps 660 mmHg 70%
    16:00 +23°C° 0 mm 1 mps 659 mmHg 78%
    17:00 +21°C° 0 mm 1 mps 659 mmHg 86%
    18:00 +17°C° 0 mm 0 mps 659 mmHg 94%
    19:00 +17°C° 0 mm 0 mps 660 mmHg 93%
    20:00 +16°C° 0 mm 0 mps 660 mmHg 92%
    21:00 +16°C° 0 mm 0 mps 660 mmHg 91%
    22:00 +16°C° 0 mm 0 mps 660 mmHg 90%
    23:00 +16°C° 0 mm 0 mps 660 mmHg 89%

    19 November, Tuesday

    Time Temperature Precipitation Wind Pressure Humidity
    00:00 +15°C° 0 mm 0 mps 660 mmHg 88%
    01:00 +15°C° 0 mm 0 mps 660 mmHg 88%
    02:00 +15°C° 0 mm 0 mps 659 mmHg 88%
    03:00 +14°C° 0 mm 0 mps 659 mmHg 88%
    04:00 +14°C° 0 mm 0 mps 659 mmHg 86%
    05:00 +15°C° 0 mm 1 mps 659 mmHg 84%
    06:00 +15°C° 0 mm 1 mps 659 mmHg 82%
    07:00 +18°C° 0 mm 1 mps 660 mmHg 77%
    08:00 +20°C° 0 mm 1 mps 661 mmHg 71%
    09:00 +22°C° 0 mm 1 mps 662 mmHg 65%
    10:00 +23°C° 0 mm 1 mps 662 mmHg 63%
    11:00 +25°C° 0 mm 1 mps 662 mmHg 61%
    12:00 +26°C° 0 mm 2 mps 662 mmHg 59%
    13:00 +25°C° 0 mm 2 mps 661 mmHg 60%
    14:00 +25°C° 0 mm 2 mps 661 mmHg 61%
    15:00 +25°C° 0 mm 2 mps 660 mmHg 62%
    16:00 +23°C° 0 mm 1 mps 660 mmHg 72%
    17:00 +21°C° 0 mm 1 mps 660 mmHg 82%
    18:00 +16°C° 0 mm 0 mps 660 mmHg 92%
    19:00 +16°C° 0 mm 0 mps 660 mmHg 91%
    20:00 +16°C° 0 mm 0 mps 661 mmHg 90%
    21:00 +15°C° 0 mm 0 mps 661 mmHg 90%
    22:00 +15°C° 0 mm 0 mps 661 mmHg 90%
    23:00 +16°C° 0 mm 1 mps 661 mmHg 90%

    20 November, Wednesday

    Time Temperature Precipitation Wind Pressure Humidity
    00:00 +16°C° 0 mm 1 mps 661 mmHg 90%
    01:00 +15°C° 0 mm 1 mps 660 mmHg 90%
    02:00 +14°C° 0 mm 0 mps 660 mmHg 90%
    03:00 +14°C° 0 mm 0 mps 660 mmHg 89%
    04:00 +14°C° 0 mm 0 mps 660 mmHg 89%
    05:00 +14°C° 0 mm 0 mps 660 mmHg 88%
    06:00 +14°C° 0 mm 0 mps 660 mmHg 88%
    07:00 +16°C° 0 mm 0 mps 661 mmHg 82%
    08:00 +20°C° 0 mm 1 mps 662 mmHg 76%
    09:00 +23°C° 0 mm 1 mps 663 mmHg 70%
    10:00 +24°C° 0 mm 1 mps 663 mmHg 68%
    11:00 +25°C° 0 mm 1 mps 662 mmHg 66%
    12:00 +26°C° 0 mm 1 mps 662 mmHg 64%
    13:00 +26°C° 0.2 mm 1 mps 662 mmHg 66%
    14:00 +25°C° 0.2 mm 1 mps 661 mmHg 68%
    15:00 +25°C° 0.2 mm 1 mps 661 mmHg 70%
    16:00 +23°C° 0.1 mm 1 mps 660 mmHg 77%
    17:00 +22°C° 0.1 mm 1 mps 660 mmHg 84%
    18:00 +18°C° 0.1 mm 0 mps 660 mmHg 91%
    19:00 +18°C° 0 mm 0 mps 661 mmHg 90%
    20:00 +19°C° 0 mm 1 mps 661 mmHg 88%
    21:00 +19°C° 0 mm 1 mps 662 mmHg 87%
    22:00 +19°C° 0 mm 1 mps 661 mmHg 86%
    23:00 +19°C° 0 mm 1 mps 661 mmHg 86%

    21 November, Thursday

    Time Temperature Precipitation Wind Pressure Humidity
    00:00 +19°C° 0 mm 1 mps 661 mmHg 85%
    01:00 +19°C° 0 mm 1 mps 661 mmHg 86%
    02:00 +18°C° 0 mm 1 mps 661 mmHg 86%
    03:00 +18°C° 0 mm 1 mps 660 mmHg 86%
    04:00 +18°C° 0 mm 1 mps 660 mmHg 87%
    05:00 +18°C° 0 mm 1 mps 661 mmHg 89%
    06:00 +18°C° 0 mm 1 mps 661 mmHg 90%
    07:00 +20°C° 0 mm 1 mps 661 mmHg 84%
    08:00 +22°C° 0 mm 1 mps 662 mmHg 78%
    09:00 +24°C° 0 mm 1 mps 663 mmHg 73%
    10:00 +25°C° 0 mm 1 mps 663 mmHg 70%
    11:00 +26°C° 0 mm 1 mps 662 mmHg 67%
    12:00 +27°C° 0 mm 1 mps 662 mmHg 64%
    13:00 +27°C° 0.1 mm 1 mps 661 mmHg 66%
    14:00 +26°C° 0.1 mm 1 mps 661 mmHg 68%
    15:00 +26°C° 0.1 mm 1 mps 660 mmHg 70%
    16:00 +24°C° 0.1 mm 1 mps 660 mmHg 77%
    17:00 +21°C° 0.1 mm 0 mps 660 mmHg 84%
    18:00 +19°C° 0.1 mm 0 mps 660 mmHg 91%
    19:00 +19°C° 0 mm 0 mps 660 mmHg 91%
    20:00 +20°C° 0 mm 1 mps 661 mmHg 91%
    21:00 +20°C° 0 mm 1 mps 661 mmHg 90%
    22:00 +20°C° 0 mm 1 mps 661 mmHg 90%
    23:00 +19°C° 0 mm 1 mps 661 mmHg 90%
    Show more